Zurück zum Katalog

PSLV DEB

AktivSSO
NORAD 27089·DEBRIS·🇮🇳 India

Gestartet Oct 22, 2001 von Satish Dhawan Space Centre

Loading…

Nächste Überflüge (nächste 24 Stunden)

TLE

AktuellSource: Space-Track

Epoche: Sep 14, 2026, 13:00 UTC

1 27089U 01049AH  26257.54223463  .00000363  00000-0  34277-4 0  9990
2 27089  98.1170 283.7266 0049139 137.4529  21.7496 14.99553838342772

Verfolge PSLV DEB in Echtzeit mit AllMySat

Download on the App Store